FW0019 Weather Reports


Display with metric or nautical units.
time (UTC)temp
F
wind
direction
speed
MPH
gust
MPH
rain 1hr
in
rain 24hr
in
rain mn
in
humidity
%
barometer
mb
20260505200005 40 114 12.0 21.0 0.02 0.67 0.66 98 876.7
20260505194507 41 96 9.0 16.0 0.01 0.66 0.65 98 876.6
20260505193003 40 111 11.0 17.0 0.04 0.66 0.65 98 876.8
20260505191503 41 157 9.0 22.0 0.06 0.66 0.65 98 876.9
20260505190005 41 125 9.0 17.0 0.06 0.65 0.64 98 876.7
20260505184501 41 113 8.0 19.0 0.07 0.65 0.64 98 876.7
20260505183105 41 137 10.0 17.0 0.06 0.62 0.61 98 876.6
20260505181559 40 101 10.0 21.0 0.07 0.60 0.59 98 876.5
20260505180104 40 78 10.0 16.0 0.08 0.59 0.57 98 876.6
20260505174556 41 117 12.0 24.0 0.08 0.57 0.56 97 876.3
20260505173053 41 143 12.0 24.0 0.07 0.56 0.55 98 876.1
20260505171556 41 126 8.0 22.0 0.05 0.53 0.52 98 875.9
20260505170051 41 123 8.0 18.0 0.05 0.52 0.50 98 875.7
20260505164550 41 101 7.0 17.0 0.07 0.51 0.49 98 875.6
20260505163048 41 145 10.0 18.0 0.06 0.50 0.48 98 875.5
20260505161547 41 127 11.0 21.0 0.05 0.49 0.47 98 875.3
20260505153050 41 124 11.0 25.0 0.02 0.44 0.42 98 875.1
20260505151546 41 138 12.0 24.0 0.06 0.44 0.42 97 875.0
20260505124535 42 123 12.0 21.0 0.10 0.27 0.25 97 874.0
20260505123033 42 115 8.0 20.0 0.06 0.22 0.20 97 874.1
20260505121537 42 138 15.0 24.0 0.05 0.21 0.19 97 873.9
20260505120031 42 107 9.0 18.0 0.02 0.17 0.15 97 873.9
20260505114529 42 98 10.0 24.0 0.03 0.17 0.15 97 874.0
20260505113038 42 165 12.0 23.0 0.03 0.16 0.14 97 873.9
20260505111540 42 162 12.0 31.0 0.05 0.16 0.14 97 874.0
20260505101532 41 58 9.0 24.0 0.07 0.11 0.09 97 874.1
20260505100020 41 5 4.0 15.0 0.06 0.09 0.07 97 874.1
20260505094521 41 134 8.0 16.0 0.06 0.08 0.06 97 874.3
20260505093017 41 104 8.0 16.0 0.04 0.06 0.04 97 874.3
20260505091516 40 96 4.0 14.0 0.02 0.04 0.02 97 874.6
20260505090017 39 130 6.0 13.0 0.01 0.03 0.01 97 874.7
20260505084525 39 136 8.0 16.0 0.00 0.02 0.00 97 874.7
20260505083011 40 100 8.0 16.0 0.00 0.02 0.00 97 874.8
20260505081510 40 144 7.0 18.0 0.00 0.02 0.00 97 875.0
20260505080021 40 68 5.0 15.0 0.00 0.02 0.00 97 875.3
20260505074507 40 88 8.0 21.0 0.00 0.02 0.00 97 875.2
20260505073005 41 136 9.0 17.0 0.00 0.02 0.00 97 875.3
20260505071502 41 188 12.0 21.0 0.00 0.02 0.00 97 875.1
20260505070107 41 129 11.0 24.0 0.00 0.02 0.02 97 875.3
20260505064559 41 143 13.0 22.0 0.00 0.02 0.02 97 875.2
20260505063058 41 156 14.0 25.0 0.00 0.02 0.02 97 875.4
20260505061618 41 152 13.0 28.0 0.00 0.02 0.02 97 875.4
20260505060100 41 135 14.0 21.0 0.00 0.02 0.02 97 875.6
20260505054557 41 131 12.0 25.0 0.00 0.02 0.02 96 875.6
20260505053057 40 128 11.0 24.0 0.00 0.02 0.02 96 875.7
20260505051555 40 125 11.0 25.0 0.00 0.02 0.02 96 875.7
20260505041557 41 111 12.0 28.0 0.01 0.02 0.02 95 875.8
20260505040101 41 134 12.0 24.0 0.00 0.01 0.01 95 875.7
20260505034554 41 127 14.0 28.0 0.00 0.01 0.01 95 875.6
20260505033100 42 115 14.0 27.0 0.00 0.01 0.01 95 875.5
20260505031555 42 116 13.0 26.0 0.00 0.01 0.01 95 875.3
20260505030051 42 143 12.0 28.0 0.00 0.01 0.01 94 875.4
20260505024550 42 121 11.0 24.0 0.00 0.01 0.01 94 875.1
20260505023047 43 128 14.0 23.0 0.00 0.01 0.01 93 875.1
20260505021545 43 125 16.0 24.0 0.00 0.01 0.01 91 875.2
20260505020044 43 96 16.0 29.0 0.00 0.01 0.01 90 875.0
20260505014545 44 94 17.0 24.0 0.00 0.01 0.01 90 875.1
20260505013043 44 125 12.0 28.0 0.00 0.01 0.01 88 875.6
20260505011545 45 121 12.0 30.0 0.00 0.01 0.01 85 875.6
20260505010056 46 129 15.0 25.0 0.00 0.01 0.01 84 875.7
20260505004543 46 142 14.0 31.0 0.00 0.01 0.01 83 875.8
20260505003042 46 122 14.0 30.0 0.00 0.01 0.01 81 875.9
20260505001541 47 116 13.0 22.0 0.00 0.01 0.01 81 875.8
20260505000049 47 63 13.0 27.0 0.00 0.01 0.01 79 875.9
20260504234540 47 63 14.0 28.0 0.00 0.01 0.01 77 875.9
20260504233040 47 146 17.0 26.0 0.00 0.01 0.01 75 876.0
20260504231539 47 112 16.0 26.0 0.00 0.01 0.01 74 876.0
20260504230040 47 157 14.0 27.0 0.00 0.01 0.01 78 876.1
20260504224539 48 133 13.0 24.0 0.00 0.01 0.01 77 876.1
20260504223038 48 140 16.0 27.0 0.00 0.01 0.01 76 876.1
20260504221541 48 104 14.0 28.0 0.00 0.01 0.01 75 876.3
20260504220046 48 103 16.0 29.0 0.00 0.01 0.01 76 876.3
20260504214538 48 144 14.0 25.0 0.00 0.01 0.01 79 876.5
20260504213051 48 83 14.0 25.0 0.00 0.01 0.01 79 876.7
20260504211540 49 107 15.0 27.0 0.00 0.01 0.01 77 876.6
20260504210034 48 145 15.0 24.0 0.00 0.01 0.01 79 876.8
20260504204541 49 115 15.0 24.0 0.00 0.01 0.01 77 876.7
20260504203033 48 126 12.0 21.0 0.00 0.01 0.01 80 876.9
20260504201531 49 121 13.0 23.0 0.00 0.01 0.01 81 877.0